GW0539 Weather Reports


time (UTC)temp
C
wind
direction
speed
KPH
gust
KPH
rain 1hr
cm
rain 24hr
cm
rain mn
cm
humidity
%
barometer
mb
20260505065506 3 298 1.6 1.6 0.00 0.00 0.00 96 1016.0
20260505065003 3 295 0.0 0.0 0.00 0.00 0.00 96 1015.7
20260505064500 3 295 0.0 0.0 0.00 0.00 0.00 96 1015.8
20260505063958 3 294 0.0 0.0 0.00 0.00 0.00 96 1015.8
20260505063455 3 294 0.0 0.0 0.00 0.00 0.00 96 1016.1
20260505062951 3 293 1.6 1.6 0.00 0.00 0.00 96 1016.1
20260505062448 3 294 1.6 1.6 0.00 0.00 0.00 96 1016.0
20260505061945 3 293 0.0 1.6 0.00 0.00 0.00 96 1016.0
20260505061443 3 293 1.6 1.6 0.00 0.00 0.00 96 1016.0
20260505060940 3 294 0.0 0.0 0.00 0.00 0.00 96 1015.7
20260505060437 3 293 1.6 1.6 0.00 0.00 0.00 96 1015.8
20260505055933 3 293 1.6 1.6 0.00 0.05 0.05 96 1016.0
20260505055430 3 301 0.0 1.6 0.00 0.05 0.05 96 1016.0
20260505054926 3 300 1.6 1.6 0.00 0.05 0.05 96 1016.0
20260505054424 3 308 0.0 0.0 0.00 0.05 0.05 96 1016.2
20260505053922 3 308 1.6 1.6 0.00 0.05 0.05 96 1016.1
20260505053418 3 311 1.6 3.2 0.00 0.05 0.05 96 1016.4
20260505052915 3 309 1.6 3.2 0.00 0.05 0.05 96 1016.1
20260505052412 3 313 3.2 3.2 0.00 0.05 0.05 96 1016.1
20260505051910 3 316 3.2 3.2 0.00 0.05 0.05 96 1016.0
20260505051407 3 308 1.6 1.6 0.00 0.05 0.05 96 1015.7
20260505050905 3 328 3.2 4.8 0.00 0.05 0.05 96 1015.7
20260505050403 3 323 3.2 4.8 0.00 0.05 0.05 96 1015.8
20260505041330 3 342 3.2 8.0 0.00 0.05 0.05 95 1016.1
20260505040827 3 4 4.8 8.0 0.00 0.05 0.05 95 1016.0
20260505040325 3 325 3.2 4.8 0.00 0.05 0.05 95 1015.8
20260505035821 3 314 1.6 3.2 0.00 0.05 0.05 96 1015.7
20260505035317 3 309 0.0 3.2 0.00 0.05 0.05 96 1015.7
20260505034815 3 310 0.0 1.6 0.00 0.05 0.05 96 1015.6
20260505034311 3 307 0.0 0.0 0.00 0.05 0.05 96 1015.6
20260505033808 3 322 4.8 4.8 0.00 0.05 0.05 96 1015.5
20260505033305 3 322 1.6 3.2 0.00 0.05 0.05 96 1016.0
20260505032804 3 346 4.8 4.8 0.00 0.05 0.05 95 1015.7
20260505032259 3 342 4.8 9.7 0.00 0.05 0.05 95 1015.6
20260505031756 3 328 4.8 8.0 0.00 0.05 0.05 94 1015.6
20260505031253 3 327 4.8 4.8 0.00 0.05 0.05 93 1015.3
20260505030750 3 306 1.6 3.2 0.00 0.05 0.05 93 1015.3
20260505030246 3 295 1.6 1.6 0.00 0.05 0.05 93 1015.3
20260505025742 3 302 0.0 1.6 0.00 0.05 0.05 93 1015.3
20260505025240 4 308 0.0 3.2 0.00 0.05 0.05 93 1015.5
20260505024738 4 338 3.2 4.8 0.00 0.05 0.05 94 1015.8
20260505024235 4 329 4.8 4.8 0.00 0.05 0.05 94 1015.6
20260505023732 4 339 4.8 8.0 0.00 0.05 0.05 94 1015.7
20260505023230 4 354 8.0 9.7 0.00 0.05 0.05 92 1015.8
20260505022727 4 345 8.0 11.3 0.00 0.05 0.05 92 1015.6
20260505022224 4 329 6.4 9.7 0.00 0.05 0.05 91 1015.3
20260505021720 5 336 6.4 8.0 0.00 0.05 0.05 90 1015.3
20260505021217 5 327 3.2 4.8 0.00 0.05 0.05 90 1015.1
20260505020713 5 304 1.6 3.2 0.18 0.05 0.05 89 1015.5
20260505020208 5 314 1.6 4.8 0.18 0.05 0.05 90 1015.5
20260505015706 5 356 4.8 4.8 0.00 0.03 0.03 89 1015.6
20260505015203 5 353 4.8 8.0 0.13 0.03 0.03 88 1015.7
20260505014700 5 346 6.4 9.7 0.13 0.03 0.03 86 1015.7
20260505014157 5 3 4.8 4.8 0.00 0.00 0.00 84 1015.5
20260505013654 5 348 8.0 9.7 0.00 0.00 0.00 83 1015.3
20260505013151 6 22 4.8 9.7 0.00 0.00 0.00 79 1015.1
20260505012649 6 318 3.2 8.0 0.00 0.00 0.00 77 1015.1
20260505012146 6 312 1.6 4.8 0.00 0.00 0.00 76 1015.2
20260505011642 6 302 0.0 1.6 0.00 0.00 0.00 75 1015.1
20260505011139 6 280 3.2 3.2 0.00 0.00 0.00 74 1015.0
20260505010639 6 293 1.6 11.3 0.00 0.00 0.00 73 1015.0
20260505010137 6 90 11.3 12.9 0.00 0.00 0.00 72 1014.8
20260505005632 7 344 8.0 11.3 0.00 0.00 0.00 70 1014.8
20260505005130 7 21 4.8 9.7 0.00 0.00 0.00 70 1015.0
20260505004627 7 69 9.7 14.5 0.00 0.00 0.00 68 1014.8
20260505004123 7 65 9.7 17.7 0.00 0.00 0.00 66 1014.7
20260505003620 8 16 9.7 11.3 0.00 0.00 0.00 63 1014.6
20260505003113 8 76 17.7 25.7 0.00 0.00 0.00 59 1014.4
20260505002608 10 17 8.0 20.9 0.00 0.00 0.00 56 1014.3
20260505002107 10 37 20.9 27.4 0.00 0.00 0.00 57 1014.2
20260505001604 12 20 16.1 20.9 0.00 0.00 0.00 40 1013.7
20260505001101 12 353 6.4 11.3 0.00 0.00 0.00 39 1013.7
20260505000558 12 50 8.0 12.9 0.00 0.00 0.00 39 1013.4
20260505000056 12 38 8.0 14.5 0.00 0.00 0.00 39 1012.8
20260504235552 12 113 9.7 17.7 0.00 0.00 0.00 38 1013.0
20260504235049 13 38 4.8 11.3 0.00 0.00 0.00 38 1012.8
20260504234546 13 356 11.3 12.9 0.00 0.00 0.00 38 1013.0
20260504234043 13 13 14.5 17.7 0.00 0.00 0.00 38 1012.9
20260504233538 14 346 8.0 14.5 0.00 0.00 0.00 37 1012.9
20260504233035 13 351 9.7 12.9 0.00 0.00 0.00 39 1012.8
20260504232532 13 9 6.4 8.0 0.00 0.00 0.00 37 1012.9
20260504232030 13 33 6.4 8.0 0.00 0.00 0.00 38 1012.8
20260504231526 13 338 3.2 11.3 0.00 0.00 0.00 37 1012.7
20260504231022 13 335 4.8 9.7 0.00 0.00 0.00 37 1012.8
20260504230519 13 21 4.8 11.3 0.00 0.00 0.00 37 1012.7
20260504230018 14 35 9.7 16.1 0.00 0.00 0.00 37 1012.8
20260504225515 14 335 8.0 9.7 0.00 0.00 0.00 34 1012.8
20260504225012 14 322 8.0 9.7 0.00 0.00 0.00 36 1012.8
20260504224508 14 304 6.4 8.0 0.00 0.00 0.00 35 1012.7
20260504224005 14 304 6.4 11.3 0.00 0.00 0.00 36 1013.2
20260504223502 14 307 4.8 11.3 0.00 0.00 0.00 34 1013.2
20260504222957 14 323 6.4 11.3 0.00 0.00 0.00 34 1013.2
20260504222455 14 288 9.7 12.9 0.00 0.00 0.00 33 1013.2
20260504221952 15 231 8.0 11.3 0.00 0.00 0.00 35 1013.2
20260504221449 14 264 4.8 11.3 0.00 0.00 0.00 36 1013.3
20260504220946 13 272 8.0 11.3 0.00 0.00 0.00 37 1013.3
20260504220443 13 284 11.3 12.9 0.00 0.00 0.00 38 1013.3
20260504215940 12 218 9.7 17.7 0.00 0.00 0.00 40 1013.4
20260504215436 12 253 17.7 24.1 0.00 0.00 0.00 41 1013.3
20260504214933 12 225 17.7 22.5 0.00 0.00 0.00 41 1013.7
20260504214429 12 289 12.9 35.4 0.00 0.00 0.00 42 1013.7
20260504213926 13 289 11.3 27.4 0.00 0.00 0.00 40 1013.8
20260504213422 12 249 19.3 20.9 0.00 0.00 0.00 39 1013.8
20260504212920 12 233 14.5 20.9 0.00 0.00 0.00 39 1013.6
20260504212415 12 282 14.5 22.5 0.00 0.00 0.00 40 1013.7
20260504211914 13 305 11.3 16.1 0.00 0.00 0.00 38 1013.9
20260504211409 12 288 16.1 25.7 0.00 0.00 0.00 37 1013.9
20260504210907 13 270 29.0 38.6 0.00 0.00 0.00 39 1013.9
20260504210404 13 273 20.9 29.0 0.00 0.00 0.00 34 1013.8
20260504205901 14 329 9.7 12.9 0.00 0.00 0.00 32 1013.7
20260504205359 15 315 11.3 12.9 0.00 0.00 0.00 31 1013.8
20260504204857 15 269 11.3 16.1 0.00 0.00 0.00 32 1013.7
20260504204355 15 258 6.4 9.7 0.00 0.00 0.00 33 1013.8
20260504203854 14 276 6.4 24.1 0.00 0.00 0.00 34 1013.7
20260504203350 13 263 11.3 24.1 0.00 0.00 0.00 36 1013.9
20260504202846 13 271 22.5 35.4 0.00 0.00 0.00 36 1013.9
20260504202344 15 292 19.3 27.4 0.00 0.00 0.00 32 1013.4
20260504201840 15 289 9.7 17.7 0.00 0.00 0.00 29 1013.6
20260504201337 15 254 8.0 16.1 0.00 0.00 0.00 27 1013.4
20260504200835 16 243 11.3 17.7 0.00 0.00 0.00 27 1013.4
20260504200331 16 352 4.8 12.9 0.00 0.00 0.00 26 1013.3
20260504195828 17 350 9.7 12.9 0.00 0.00 0.00 25 1013.3
20260504195323 17 298 9.7 17.7 0.00 0.00 0.00 23 1013.3
20260504194820 17 211 9.7 16.1 0.00 0.00 0.00 24 1013.3
20260504194316 17 246 8.0 12.9 0.00 0.00 0.00 22 1013.4
20260504193812 16 352 14.5 17.7 0.00 0.00 0.00 24 1013.4
20260504193310 16 351 14.5 20.9 0.00 0.00 0.00 26 1013.4
20260504192808 17 327 9.7 20.9 0.00 0.00 0.00 25 1013.7
20260504192306 17 293 12.9 20.9 0.00 0.00 0.00 23 1013.8
20260504191805 16 293 3.2 17.7 0.00 0.00 0.00 25 1013.9
20260504191302 15 347 16.1 29.0 0.00 0.00 0.00 26 1014.1
20260504190757 16 330 16.1 20.9 0.00 0.00 0.00 27 1014.3
20260504190253 14 306 11.3 14.5 0.00 0.00 0.00 30 1014.2
20260504185750 15 3 11.3 17.7 0.00 0.00 0.00 28 1014.3
20260504185247 16 42 14.5 16.1 0.00 0.00 0.00 26 1014.1
20260504184743 17 289 11.3 22.5 0.00 0.00 0.00 25 1014.2
20260504184239 16 238 14.5 25.7 0.00 0.00 0.00 25 1014.1
20260504183735 17 333 11.3 20.9 0.00 0.00 0.00 26 1014.2
20260504183232 16 263 14.5 22.5 0.00 0.00 0.00 27 1014.4
20260504182730 15 283 12.9 20.9 0.00 0.00 0.00 29 1014.3
20260504182227 16 309 9.7 14.5 0.00 0.00 0.00 25 1014.4
20260504181724 15 290 14.5 17.7 0.00 0.00 0.00 26 1014.7
20260504181222 16 269 14.5 22.5 0.00 0.00 0.00 25 1014.7
20260504180721 15 270 11.3 16.1 0.00 0.00 0.00 26 1014.8
20260504180219 16 281 14.5 20.9 0.00 0.00 0.00 25 1015.0
20260504175716 16 302 14.5 20.9 0.00 0.00 0.00 25 1014.8
20260504175213 15 324 11.3 20.9 0.00 0.00 0.00 26 1014.8
20260504174711 15 308 12.9 17.7 0.00 0.00 0.00 26 1015.1
20260504174209 15 310 11.3 16.1 0.00 0.00 0.00 26 1015.3
20260504173705 15 329 19.3 24.1 0.00 0.00 0.00 26 1015.2
20260504173202 15 319 9.7 22.5 0.00 0.00 0.00 28 1015.5
20260504172658 15 331 11.3 16.1 0.00 0.00 0.00 27 1015.7
20260504172155 15 318 11.3 27.4 0.00 0.00 0.00 29 1015.7
20260504171651 13 315 11.3 14.5 0.00 0.00 0.00 29 1015.6
20260504171149 13 7 9.7 16.1 0.00 0.00 0.00 29 1016.0
20260504170645 13 293 8.0 11.3 0.00 0.00 0.00 32 1016.1
20260504170143 13 295 0.0 4.8 0.00 0.00 0.00 30 1016.0
20260504151028 11 19 4.8 11.3 0.00 0.00 0.00 40 1017.5
20260504150525 10 306 0.0 3.2 0.00 0.00 0.00 46 1017.6
20260504140951 2 280 1.6 9.7 0.00 0.00 0.00 73 1018.0
20260504140447 2 271 3.2 8.0 0.00 0.00 0.00 73 1017.8
20260504130412 -1 279 1.6 1.6 0.00 0.00 0.00 84 1017.4
20260504110259 -2 279 1.6 1.6 0.00 0.00 0.00 86 1017.6
20260504100217 -2 279 1.6 1.6 0.00 0.00 0.00 85 1017.8
20260504090139 -3 279 0.0 0.0 0.00 0.00 0.00 86 1018.0
20260504081610 -3 279 0.0 1.6 0.00 0.00 0.00 86 1018.4
20260504081106 -3 279 0.0 0.0 0.00 0.00 0.00 85 1018.4
20260504080603 -3 279 0.0 0.0 0.00 0.00 0.00 85 1018.4